Weather History for Drummond Island, MI

Change the Weather History Date:

Thursday, February 14, 2013

  Actual Average (KCIU) Record (KCIU)
Temperature  
Mean Temperature 28 °F -  
Max Temperature 33 °F 27 °F 44 °F (1984)
Min Temperature 23 °F 3 °F -18 °F (1982)
Degree Days  
Heating Degree Days 37    
Moisture  
Dew Point 31 °F    
Average Humidity 99    
Maximum Humidity 100    
Minimum Humidity 95    
Precipitation  
Precipitation 0.00 in - - ()
Sea Level Pressure  
Sea Level Pressure 29.63 in    
Wind  
Wind Speed 3 mph (SSW)    
Max Wind Speed 9 mph    
Max Gust Speed 18 mph    
Visibility 3 miles    
Events Rain , Snow    
Averages and records for this station are not official NWS values.
T = Trace of Precipitation, MM = Missing Value Source: NWS Daily Summary

Daily Weather History Graph

Daily Weather History Graph

Search for Another Location

Airport:

Trip Planner

Search our weather history database for the weather conditions in past years. The results will help you decide how hot, cold, wet, or windy it might be!

Date:

Astronomy

Feb. 14, 2013 Rise Set
Actual Time 7:38 AM EST 6:00 PM EST
Civil Twilight 7:07 AM EST 6:30 PM EST
Nautical Twilight 6:33 AM EST 7:06 PM EST
Astronomical Twilight 5:58 AM EST 7:40 PM EST
Moon 9:21 AM EST (2/14) 11:22 PM EST (2/14)
Length of Visible Light 11h 22m
Length of Day
10h 21m
Waxing Crescent, 21% of the Moon is Illuminated
Feb 14
Waxing Crescent
Feb 17
First Quarter
Feb 25
Full
Mar 4
Last Quarter
Mar 11
New

Hourly Weather History & Observations

Time (EST) Temp. Windchill Dew Point Humidity Pressure Visibility Wind Dir Wind Speed Gust Speed Precip Events Conditions
12:16 AM 24.6 °F - 24.6 °F 100% 29.66 in 4.0 mi Calm Calm - N/A   Overcast
12:36 AM 23.5 °F 17.6 °F 23.5 °F 100% 29.66 in 5.0 mi SE 4.6 mph - N/A   Overcast
12:56 AM 27.5 °F 23.6 °F 27.5 °F 100% 29.66 in 4.0 mi SE 3.5 mph - N/A   Overcast
1:16 AM 28.4 °F 24.6 °F 28.4 °F 100% 29.66 in 4.0 mi SE 3.5 mph - N/A   Overcast
1:36 AM 28.4 °F 23.3 °F 28.4 °F 100% 29.65 in 4.0 mi SE 4.6 mph - N/A   Overcast
1:56 AM 28.9 °F - 28.9 °F 100% 29.66 in 4.0 mi Calm Calm - N/A   Overcast
2:16 AM 29.5 °F 25.9 °F 29.5 °F 100% 29.65 in 4.0 mi SE 3.5 mph - N/A   Overcast
2:36 AM 30.0 °F 26.5 °F 30.0 °F 100% 29.65 in 4.0 mi SE 3.5 mph - N/A   Overcast
2:55 AM 30.6 °F 27.1 °F 30.6 °F 100% 29.65 in 3.0 mi SE 3.5 mph - N/A   Overcast
3:16 AM 30.9 °F - 30.9 °F 100% 29.65 in 3.0 mi Calm Calm - N/A Snow Light Snow
3:36 AM 31.1 °F - 31.1 °F 100% 29.65 in 2.5 mi Calm Calm - N/A Snow Light Snow
3:55 AM 31.5 °F - 31.5 °F 100% 29.64 in 4.0 mi Calm Calm - N/A Snow Light Snow
4:16 AM 31.5 °F - 31.5 °F 100% 29.64 in 5.0 mi Calm Calm - N/A   Overcast
4:35 AM 31.1 °F - 31.1 °F 100% 29.64 in 5.0 mi Calm Calm - N/A   Overcast
4:56 AM 31.6 °F 27.0 °F 31.6 °F 100% 29.64 in 5.0 mi South 4.6 mph - N/A   Overcast
5:16 AM 32.0 °F 27.5 °F 31.1 °F 96% 29.64 in 7.0 mi SSW 4.6 mph - N/A   Overcast
5:35 AM 32.0 °F - 31.1 °F 96% 29.64 in 7.0 mi Calm Calm - N/A   Overcast
5:56 AM 31.3 °F - 30.4 °F 96% 29.64 in 5.0 mi Calm Calm - N/A   Overcast
6:16 AM 30.0 °F - 29.5 °F 98% 29.63 in 4.0 mi Calm Calm - N/A   Overcast
6:36 AM 29.8 °F - 29.7 °F 99% 29.63 in 4.0 mi Calm Calm - N/A   Overcast
7:16 AM 31.1 °F 27.7 °F 30.7 °F 99% 29.63 in 4.0 mi South 3.5 mph - N/A Snow Light Snow
7:36 AM 31.5 °F - 30.9 °F 98% 29.64 in 3.0 mi Calm Calm - N/A Snow Light Snow
7:56 AM 31.1 °F - 30.9 °F 99% 29.64 in 2.0 mi Calm Calm - N/A Snow Light Snow
8:16 AM 31.6 °F - 31.5 °F 99% 29.64 in 2.0 mi Calm Calm - N/A Snow Light Snow
8:36 AM 31.8 °F 28.5 °F 31.8 °F 100% 29.65 in 1.2 mi SSE 3.5 mph - N/A Snow Light Snow
8:56 AM 32.0 °F 28.7 °F 32.0 °F 100% 29.65 in 1.5 mi South 3.5 mph - N/A Snow Light Snow
9:15 AM 32.0 °F 27.5 °F 32.0 °F 100% 29.65 in 1.2 mi South 4.6 mph - N/A Snow Light Snow
9:36 AM 32.0 °F 27.5 °F 32.0 °F 100% 29.64 in 1.2 mi South 4.6 mph - N/A Snow Light Snow
9:56 AM 32.2 °F 25.0 °F 32.2 °F 100% 29.64 in 1.8 mi South 8.1 mph - N/A Snow Light Snow
10:16 AM 32.2 °F 25.8 °F 32.2 °F 100% 29.64 in 1.2 mi South 6.9 mph - N/A Snow Light Snow
10:36 AM 32.2 °F 26.7 °F 32.2 °F 100% 29.64 in 1.0 mi South 5.8 mph - N/A Snow Light Snow
10:55 AM 32.4 °F 26.0 °F 32.4 °F 100% 29.64 in 1.5 mi South 6.9 mph - N/A Snow Light Snow
11:16 AM 32.2 °F 25.8 °F 32.0 °F 99% 29.63 in 1.2 mi South 6.9 mph - N/A Snow Light Snow
11:36 AM 32.2 °F 25.8 °F 32.0 °F 99% 29.63 in 1.0 mi South 6.9 mph - N/A Snow Light Snow
11:56 AM 32.4 °F 27.9 °F 32.2 °F 99% 29.63 in 1.2 mi South 4.6 mph - N/A Rain Light Rain
12:16 PM 32.9 °F 29.8 °F 32.5 °F 99% 29.62 in 1.8 mi SSE 3.5 mph - N/A Snow Light Snow
12:36 PM 33.1 °F - 32.5 °F 98% 29.62 in 1.8 mi Calm Calm - N/A Snow Light Snow
12:56 PM 33.3 °F - 32.5 °F 97% 29.61 in 2.5 mi Calm Calm - N/A Snow Light Snow
1:16 PM 33.4 °F 30.4 °F 32.9 °F 98% 29.60 in 2.0 mi SE 3.5 mph - N/A   Overcast
1:36 PM 33.3 °F 30.2 °F 32.4 °F 96% 29.59 in 2.0 mi South 3.5 mph - N/A Snow Light Snow
1:56 PM 33.1 °F 30.0 °F 32.5 °F 98% 29.59 in 2.0 mi SSE 3.5 mph - N/A Rain Light Rain
2:16 PM 32.9 °F - 32.5 °F 99% 29.59 in 1.5 mi Calm Calm - N/A   Overcast
2:35 PM 32.9 °F - 32.9 °F 100% 29.59 in 1.8 mi Calm Calm - N/A Snow Light Snow
2:56 PM 33.1 °F - 32.7 °F 99% 29.59 in 2.0 mi Calm Calm - N/A Snow Light Snow
3:16 PM 32.9 °F - 32.9 °F 100% 29.58 in 1.5 mi Calm Calm - N/A Snow Light Snow
3:35 PM 32.9 °F - 32.9 °F 100% 29.59 in 1.2 mi Calm Calm - N/A Snow Light Snow
3:56 PM 32.9 °F - 32.9 °F 100% 29.59 in 1.0 mi Calm Calm - N/A Snow Light Snow
4:16 PM 32.5 °F - 32.5 °F 100% 29.59 in 1.2 mi Calm Calm - N/A Snow Light Snow
4:36 PM 32.9 °F - 32.9 °F 100% 29.59 in 1.0 mi Calm Calm - N/A Snow Light Snow
4:56 PM 32.4 °F - 32.4 °F 100% 29.59 in 1.0 mi Calm Calm - N/A Snow Light Snow
5:16 PM 32.4 °F - 32.4 °F 100% 29.59 in 0.8 mi Calm Calm - N/A Snow Light Snow
5:36 PM 32.2 °F - 32.2 °F 100% 29.60 in 0.8 mi Calm Calm - N/A Snow Light Snow
5:56 PM 32.0 °F - 32.0 °F 100% 29.61 in 0.8 mi Calm Calm - N/A Snow Light Snow
6:16 PM 32.0 °F - 32.0 °F 100% 29.61 in 0.5 mi Calm Calm - N/A Snow Light Snow
6:36 PM 32.0 °F 28.7 °F 32.0 °F 100% 29.62 in 1.0 mi North 3.5 mph - N/A Snow Light Snow
6:56 PM 32.0 °F 28.7 °F 32.0 °F 100% 29.62 in 1.2 mi North 3.5 mph - N/A Snow Light Snow
7:16 PM 32.0 °F 28.7 °F 32.0 °F 100% 29.62 in 1.2 mi NNW 3.5 mph - N/A Snow Light Snow
7:36 PM 32.0 °F 28.7 °F 32.0 °F 100% 29.63 in 1.2 mi NNW 3.5 mph - N/A Snow Light Snow
7:56 PM 32.2 °F 28.9 °F 32.2 °F 100% 29.63 in 1.8 mi NW 3.5 mph - N/A Snow Light Snow
8:15 PM 32.0 °F 28.7 °F 32.0 °F 100% 29.63 in 2.0 mi NW 3.5 mph - N/A Snow Light Snow
8:36 PM 32.0 °F 26.4 °F 32.0 °F 100% 29.63 in 2.0 mi NNW 5.8 mph - N/A Snow Light Snow
8:56 PM 32.0 °F 25.6 °F 32.0 °F 100% 29.64 in 2.0 mi NNW 6.9 mph - N/A Snow Light Snow
9:15 PM 32.0 °F 25.6 °F 32.0 °F 100% 29.65 in 4.0 mi NW 6.9 mph - N/A Snow Light Snow
9:36 PM 30.7 °F 23.3 °F 30.7 °F 100% 29.65 in 3.0 mi NW 8.1 mph 17.3 mph N/A Snow Light Snow
9:56 PM 30.2 °F 22.6 °F 30.2 °F 100% 29.66 in 2.5 mi NNW 8.1 mph - N/A Snow Light Snow
10:16 PM 29.7 °F 21.3 °F 29.7 °F 100% 29.67 in 5.0 mi NW 9.2 mph 18.4 mph N/A Snow Light Snow
10:36 PM 28.8 °F 21.7 °F 28.2 °F 98% 29.68 in 5.0 mi NW 6.9 mph - N/A Snow Light Snow
10:56 PM 28.4 °F 21.2 °F 27.5 °F 96% 29.68 in 4.0 mi NW 6.9 mph - N/A Snow Light Snow
11:16 PM 27.9 °F 20.6 °F 27.0 °F 96% 29.69 in 4.0 mi NNW 6.9 mph - N/A Snow Light Snow
11:36 PM 27.3 °F 19.1 °F 26.2 °F 96% 29.70 in 5.0 mi NNW 8.1 mph 18.4 mph N/A Snow Light Snow
11:56 PM 27.0 °F 18.7 °F 25.7 °F 95% 29.71 in 7.0 mi NW 8.1 mph - N/A Snow Light Snow